Tracking 31027 objects as of 19-Jul-2025
HD Live streaming from Space Station
objects crossing your sky now

DELTA 2 R/B(1)

Track DELTA 2 R/B(1) now!
10-day predictions


NORAD ID: 27665
Int'l Code: 2003-005C
Perigee: 795.2 km
Apogee: 806.5 km
Inclination: 39.6 °
Period: 100.7 minutes
Semi major axis: 7171 km
RCS: 9.691 m2 (large)
Launch date: January 29, 2003
Source: United States (US)
Launch site: AIR FORCE EASTERN TEST RANGE (AFETR)

Note: This is a ROCKET BODY
Your satellite tracking list
ABS 3
Track 1 satellite(s)




NASA's NSSDC Master Catalog

Two Line Element Set (TLE):
1 27665U 03005C   25199.47278878  .00000074  00000-0  61923-4 0  9997
2 27665  39.5736 186.9575 0007913  30.0798 120.8865 14.29407004173269
Source of the keplerian elements: AFSPC